Location: Munkebjergskolens Observatorium
(55.3864°N, 10.3987°E)
Time: 16:15:10
(UTC+01:00)

N. Korean satellite - Pass Details

Date: 08 December 2022
Orbit: 407 x 441 km, 97.3° (Epoch: 05 February)

Event Time Altitude Azimuth Distance (km) Brightness Sun altitude
Rises 17:01:44 0° 182° (S) 2,478 10.6 -9.4°
Reaches altitude 10° 17:03:50 10° 190° (S) 1,616 9.7 -9.7°
Maximum altitude 17:07:08 40° 262° (W) 703 8.0 -10.1°
Drops below altitude 10° 17:10:30 10° 333° (NNW) 1,643 9.3 -10.5°
Sets 17:12:39 0° 341° (NNW) 2,527 10.1 -10.8°
